Regional Weather Roundup
Issued by NWS

Home | Current Version | Previous Version | Text Only | Print | Product List | Glossary On
Versions: 1 2 3 4 5 6 7 8 9 10 11 12 13 14 15 16 17 18 19 20 21 22 23 24 25 26 27 28
000
ASUS45 KSLC 270910
RWRUT

UTAH REGIONAL WEATHER ROUNDUP
NATIONAL WEATHER SERVICE SALT LAKE CITY UT
200 AM MST MON FEB 27 2017

UTZ001>011-023>025-271000-

NORTHERN UTAH

CITY           SKY/WX    TMP DP  RH WIND       PRES   REMARKS
BRIGHAM CITY     N/A     33  30  90 NW6       29.64R WCI  27
HILL AFB       LGT SNOW  32  30  93 W14       29.62R FOG     WCI  22
LOGAN          LGT SNOW  30  28  92 NW8       29.62R VSB 3/4 WCI  22
OGDEN          LGT SNOW  34  29  82 W10       29.63R WCI  26
SALT LAKE CITY CLOUDY    40  22  48 S22G30    29.60R WCI  30
TOOELE VALLEY  CLOUDY    37  23  56 S23G33    29.60S WCI  26
WENDOVER       CLOUDY    34  27  75 NW12      29.66R WCI  25
HEBER CITY     FLURRIES  34  19  55 S12G21    29.62S WCI  25
WEST JORDAN    CLOUDY    40  29  65 SE22G30   29.62S WCI  30

$$

UTZ011>015-024>027-271000-

CENTRAL/NORTHEAST UTAH

CITY           SKY/WX    TMP DP  RH WIND       PRES   REMARKS
PROVO AIRPORT  CLOUDY    39  24  55 SW20      29.67F WCI  29
MOAB/CANYONLAN PTCLDY    37  17  44 S8        29.71F WCI  31
DELTA          CLOUDY    34  25  69 S14G21    29.69R WCI  24
PRICE          MOCLDY    26  20  77 NE5       29.69S WCI  20
RICHFIELD      MOCLDY    39  19  45 SW10G18   29.70F WCI  32
ROOSEVELT      CLOUDY    27  19  74 CALM      29.73F
VERNAL         CLOUDY    23  15  71 W3        29.70F

$$

UTZ013>016-019>022-027-271000-

SOUTHERN UTAH

CITY           SKY/WX    TMP DP  RH WIND       PRES   REMARKS
BRYCE CANYON   FLURRIES  27  21  78 VRB6      29.76S WCI  20
CEDAR CITY     CLOUDY    36  24  62 SW18G28   29.71F WCI  26
MILFORD        CLOUDY    36  25  64 SW7       29.71S WCI  30
ST GEORGE      CLOUDY    48  29  47 S13       29.79F
HANKSVILLE     PTCLDY    45  21  39 SW25G39   29.73S
KANAB          CLOUDY    41  27  56 SW13      29.85F
BLANDING       CLOUDY    32  22  68 SE8       29.88F WCI  25

$$

REGIONAL REPORTS     COLORADO/ARIZONA

CITY           SKY/WX    TMP DP  RH WIND       PRES   REMARKS
CRAIG, CO      CLOUDY    22  10  60 CALM      29.70F
GRAND JUNCTION CLOUDY    39  16  39 S15       29.74F WCI  31
RIFLE, CO      CLOUDY    30  15  53 SW6       29.74F WCI  24
MONTROSE, CO   CLOUDY    32  11  41 E13       29.79F WCI  22
CORTEZ, CO     CLOUDY    36  21  54 SW5       29.85F WCI  32
COLORADO CITY  CLOUDY    39  30  70 SE3       29.85S
PAGE, AZ       CLOUDY    45  21  38 VRB5      29.79R
GRAND CANYON   CLOUDY    32  26  78 SW20G26   29.86F WCI  20
KINGMAN, AZ    MOCLDY    45  23  42 S13G18    29.84F
FLAGSTAFF, AZ  CLOUDY    30  25  81 SW17      29.87S WCI  18

$$

REGIONAL REPORTS    NEVADA/IDAHO/WYOMING

CITY           SKY/WX    TMP DP  RH WIND       PRES   REMARKS
LAS VEGAS, NV  MOCLDY    51  31  46 S10       29.75F
ELY, NY        PTCLDY    28  20  71 S13       29.64F WCI  17
ELKO, NV       CLOUDY    25  22  88 W3        29.63F
POCATELLO, ID  CLOUDY    27  22  81 SW9       29.63F WCI  18
BURLEY, ID     CLOUDY    30  24  78 SW9       29.63S WCI  22
FORT BRIDGER,    N/A     11   6  79 CALM      29.61S
EVANSTON, WY   CLOUDY    23  17  78 SW16      29.54F WCI  10
ROCK SPRINGS,  CLOUDY    19   9  65 S8        29.59F WCI   9

$$




USA.gov is the U.S. government's official web portal to all federal, state and local government web resources and services.